Lid_Strength_Index
0 -0 -0 -1 -1 -1 -1 -1 -1 1 5 7 6 6 4 5 4 3 4 4 4 6 7 9 7 7 10 9
1 0 0 -0 -0 -0 -0 -1 -1 4 8 5 6 6 5 5 4 4 3 3 4 5 7 7 8 10 11 13
1 1 1 0 1 -0 -1 -1 3 6 9 4 7 6 6 6 5 4 4 3 4 7 7 11 13 12 15 13
1 1 1 1 1 1 2 2 2 9 8 9 6 6 6 5 6 5 5 6 8 10 11 13 16 14 14 13
1 1 3 5 7 7 6 8 7 8 8 7 6 8 6 6 6 7 10 9 12 13 12 11 11 11 12 12
2 2 4 6 6 7 10 6 6 6 6 7 9 8 6 9 9 11 10 11 13 10 9 9 10 11 12 12
3 5 7 5 4 5 10 8 7 7 8 7 9 9 7 9 10 11 10 13 10 8 9 10 10 11 12 12
5 6 7 4 4 5 13 10 9 8 7 7 10 7 7 8 9 11 10 11 8 9 10 10 10 13 9 9
9 6 5 4 5 7 18 9 9 6 8 9 8 8 6 7 10 10 10 11 11 11 11 10 9 12 9 10
6 6 3 5 7 13 17 11 10 10 11 10 9 7 8 7 7 9 10 10 8 9 9 8 8 8 10 10
6 3 4 8 14 17 10 12 11 10 11 11 11 9 10 12 13 15 15 11 10 9 8 10 9 10 13 17
6 4 6 12 18 12 11 9 9 10 12 11 11 11 11 13 11 12 14 15 16 11 9 10 11 12 12 16
4 5 10 16 14 11 9 10 9 13 13 11 11 12 12 12 11 10 14 14 14 9 9 9 9 12 14 11
6 7 12 13 12 8 8 8 12 11 13 12 12 12 13 10 10 9 9 12 14 10 9 9 10 11 10 15
6 11 15 13 10 7 7 9 11 12 12 12 11 11 11 9 8 8 8 9 12 12 11 12 12 12 12 13
11 12 14 11 9 9 8 8 8 9 10 10 11 11 11 9 6 7 10 9 11 13 12 10 9 10 11 11
15 15 12 10 9 9 9 8 9 8 8 11 13 10 10 8 7 8 10 10 12 14 13 12 11 12 11 11